CST,Max TemperatureF,Mean TemperatureF,Min TemperatureF,Max Dew PointF,MeanDew PointF,Min DewpointF,Max Humidity, Mean Humidity, Min Humidity, Max Sea Level PressureIn, Mean Sea Level PressureIn, Min Sea Level PressureIn, Max VisibilityMiles, Mean VisibilityMiles, Min VisibilityMiles, Max Wind SpeedMPH, Mean Wind SpeedMPH, Max Gust SpeedMPH,PrecipitationIn, CloudCover, Events, WindDirDegrees
2013-12-1,53,40,28,39,33,25,93,71,47,30.30,30.17,30.00,10,10,9,6,1,,0.00,2,,232
2013-12-2,53,50,46,48,45,39,93,85,76,29.99,29.88,29.81,10,5,0,8,1,,0.40,8,,133
2013-12-3,59,54,50,54,51,46,94,87,82,29.87,29.82,29.79,8,3,0,7,3,,0.02,8,,73
2013-12-4,71,63,55,63,58,52,94,82,69,30.00,29.92,29.87,10,6,0,12,2,18,0.00,7,,183
2013-12-5,73,68,64,64,64,61,88,84,73,30.05,29.98,29.94,10,9,4,10,3,,0.13,7,,200
2013-12-6,75,58,41,64,53,36,88,80,65,30.21,30.01,29.93,10,10,6,15,7,30,0.64,8,,275
2013-12-7,42,40,37,36,33,30,87,78,70,30.39,30.31,30.20,10,10,10,14,10,20,0.34,8,,7
2013-12-8,51,44,39,46,43,36,93,88,81,30.26,30.16,30.08,10,5,1,9,6,,2.54,8,Thunderstorm,71
2013-12-9,53,48,44,46,45,41,93,84,72,30.17,30.10,30.01,10,9,2,9,4,,0.31,8,,356
2013-12-10,46,36,26,43,30,25,93,76,53,30.37,30.25,30.01,10,9,2,14,7,21,0.35,4,,322
2013-12-11,51,38,24,34,25,19,93,66,33,30.46,30.40,30.36,10,9,5,12,2,,0.00,0,,6
2013-12-12,44,35,26,25,19,12,80,57,27,30.54,30.46,30.40,10,10,10,13,4,,0.00,0,,3
2013-12-13,50,36,21,32,24,18,86,62,35,30.40,30.26,30.12,10,10,10,8,1,,0.00,1,,51
2013-12-14,55,47,39,52,43,30,94,80,57,30.12,29.92,29.81,10,9,2,15,3,21,0.51,8,,296
2013-12-15,41,37,32,34,28,25,81,72,65,30.26,30.15,29.97,10,10,8,14,9,21,0.00,8,,317
2013-12-16,57,42,26,30,27,21,93,69,31,30.31,30.24,30.18,10,8,3,14,3,,0.00,1,,253
2013-12-17,62,44,26,36,31,23,93,62,34,30.27,30.20,30.11,10,10,10,17,4,25,0.00,0,,264
2013-12-18,53,40,26,28,24,19,93,63,26,30.39,30.31,30.27,10,10,10,5,0,,0.00,0,,97
2013-12-19,60,42,24,32,27,19,86,64,25,30.32,30.23,30.16,10,10,10,6,1,,0.00,0,,193
2013-12-20,66,50,35,54,43,28,81,67,48,30.18,30.11,30.04,10,10,10,8,1,,0.00,6,,170
2013-12-21,73,65,57,64,59,52,88,78,69,30.03,29.90,29.82,10,9,2,15,6,31,0.06,8,,156
2013-12-22,71,62,53,64,53,50,88,85,73,30.10,29.98,29.80,10,9,3,20,6,25,2.50,7,Thunderstorm,203
2013-12-23,53,43,32,50,35,25,88,74,61,30.39,30.26,30.05,10,10,2,14,6,21,0.08,7,,329
2013-12-24,37,30,24,25,20,16,80,65,45,30.51,30.43,30.38,10,10,10,15,5,17,0.00,0,,340
2013-12-25,48,34,19,27,22,16,86,67,40,30.45,30.38,30.31,10,10,10,9,2,,0.00,0,,46
2013-12-26,53,38,24,28,25,21,86,68,35,30.40,30.35,30.30,10,10,10,7,1,,0.00,0,,342
2013-12-27,53,38,24,28,25,19,86,67,35,30.46,30.39,30.35,10,10,10,10,2,,0.00,0,,71
2013-12-28,41,37,33,37,34,28,87,81,65,30.37,30.21,29.94,10,8,2,20,5,23,1.16,6,,63
2013-12-29,53,45,37,41,38,34,93,82,58,30.08,29.99,29.90,10,8,2,8,2,,0.12,5,,284
2013-12-30,46,40,33,37,35,30,93,79,66,30.27,30.17,30.08,10,9,5,7,2,,0.00,6,,325
2013-12-31,44,37,30,32,27,25,87,69,46,30.45,30.36,30.26,10,10,7,10,5,16,0.00,3,,329